Time,TemperatureF,DewpointF,PressureIn,WindDirection,WindDirectionDegrees,WindSpeedMPH,WindSpeedGustMPH,Humidity,HourlyPrecipIn,Conditions,Clouds,dailyrainin,SoftwareType,DateUTC
2013-05-01 00:01:00,61.5,58.8,30.07,NE,37,0.0,0.0,91,0.00,,---,0.00,VWS V14.01,2013-05-01 04:01:00,
2013-05-01 00:06:00,61.5,58.8,30.07,NNE,25,0.0,3.0,91,0.00,,---,0.00,VWS V14.01,2013-05-01 04:06:00,
2013-05-01 00:11:00,61.5,58.8,30.07,ENE,58,0.0,3.0,91,0.00,,---,0.00,VWS V14.01,2013-05-01 04:11:00,
2013-05-01 00:16:00,61.3,58.7,30.07,NE,55,0.0,0.0,91,0.00,,---,0.00,VWS V14.01,2013-05-01 04:16:00,
2013-05-01 00:21:00,61.2,58.6,30.08,North,7,0.0,3.0,91,0.00,,---,0.00,VWS V14.01,2013-05-01 04:21:00,
2013-05-01 00:26:00,61.2,58.6,30.08,NE,38,0.0,1.0,91,0.00,,---,0.00,VWS V14.01,2013-05-01 04:26:00,
2013-05-01 00:31:00,61.0,58.7,30.08,NE,38,0.0,1.0,92,0.00,,---,0.00,VWS V14.01,2013-05-01 04:31:00,
2013-05-01 00:36:00,60.9,58.6,30.08,NNE,21,0.0,2.0,92,0.00,,---,0.00,VWS V14.01,2013-05-01 04:36:00,
2013-05-01 00:41:00,60.7,58.7,30.08,NNE,21,0.0,2.0,93,0.00,,---,0.00,VWS V14.01,2013-05-01 04:41:00,
2013-05-01 00:46:00,60.7,58.4,30.08,NNE,21,0.0,1.0,92,0.00,,---,0.00,VWS V14.01,2013-05-01 04:46:00,
2013-05-01 00:51:00,60.5,58.5,30.08,NNE,32,3.0,3.0,93,0.00,,---,0.00,VWS V14.01,2013-05-01 04:51:00,
2013-05-01 00:56:00,60.5,58.2,30.08,NNE,31,0.0,0.0,92,0.00,,---,0.00,VWS V14.01,2013-05-01 04:56:00,
2013-05-01 01:01:00,60.4,58.1,30.08,NNE,23,0.0,5.0,92,0.00,,---,0.00,VWS V14.01,2013-05-01 05:01:00,
2013-05-01 01:06:00,60.4,58.1,30.08,NNE,24,0.0,0.0,92,0.00,,---,0.00,VWS V14.01,2013-05-01 05:06:00,
2013-05-01 01:11:00,60.4,58.1,30.08,North,10,0.0,0.0,92,0.00,,---,0.00,VWS V14.01,2013-05-01 05:11:00,
2013-05-01 01:16:00,60.4,58.1,30.08,ENE,64,0.0,1.0,92,0.00,,---,0.00,VWS V14.01,2013-05-01 05:16:00,
2013-05-01 01:21:00,60.4,57.8,30.07,NE,38,0.0,3.0,91,0.00,,---,0.00,VWS V14.01,2013-05-01 05:21:00,
2013-05-01 01:26:00,60.4,57.8,30.07,NE,38,0.0,0.0,91,0.00,,---,0.00,VWS V14.01,2013-05-01 05:26:00,
2013-05-01 01:31:00,60.2,57.9,30.07,NE,40,0.0,2.0,92,0.00,,---,0.00,VWS V14.01,2013-05-01 05:31:00,
2013-05-01 01:36:00,60.1,57.8,30.07,NE,40,0.0,0.0,92,0.00,,---,0.00,VWS V14.01,2013-05-01 05:36:00,
2013-05-01 01:41:00,60.1,58.1,30.07,NE,40,0.0,0.0,93,0.00,,---,0.00,VWS V14.01,2013-05-01 05:41:00,
2013-05-01 01:46:00,60.1,58.1,30.07,NE,40,0.0,0.0,93,0.00,,---,0.00,VWS V14.01,2013-05-01 05:46:00,
2013-05-01 01:51:00,59.9,57.6,30.07,NE,38,1.0,2.0,92,0.00,,---,0.00,VWS V14.01,2013-05-01 05:51:00,
2013-05-01 01:56:00,59.9,57.6,30.07,NE,38,0.0,2.0,92,0.00,,---,0.00,VWS V14.01,2013-05-01 05:56:00,
2013-05-01 02:01:00,59.8,57.5,30.07,NNE,24,0.0,5.0,92,0.00,,---,0.00,VWS V14.01,2013-05-01 06:01:00,
2013-05-01 02:06:00,59.8,57.8,30.07,NNE,27,2.0,2.0,93,0.00,,---,0.00,VWS V14.01,2013-05-01 06:06:00,
2013-05-01 02:11:00,59.8,57.8,30.07,NNE,27,0.0,3.0,93,0.00,,---,0.00,VWS V14.01,2013-05-01 06:11:00,
2013-05-01 02:16:00,59.6,57.6,30.07,NE,51,2.0,2.0,93,0.00,,---,0.00,VWS V14.01,2013-05-01 06:16:00,
2013-05-01 02:21:00,59.6,57.6,30.06,NE,40,0.0,2.0,93,0.00,,---,0.00,VWS V14.01,2013-05-01 06:21:00,
2013-05-01 02:26:00,59.6,57.6,30.06,North,3,0.0,3.0,93,0.00,,---,0.00,VWS V14.01,2013-05-01 06:26:00,
2013-05-01 02:31:00,59.5,57.5,30.06,East,82,0.0,7.0,93,0.00,,---,0.00,VWS V14.01,2013-05-01 06:31:00,
2013-05-01 02:36:00,59.5,57.5,30.06,ENE,66,0.0,3.0,93,0.00,,---,0.00,VWS V14.01,2013-05-01 06:36:00,
2013-05-01 02:41:00,59.3,57.3,30.06,NNE,23,0.0,4.0,93,0.00,,---,0.00,VWS V14.01,2013-05-01 06:41:00,
2013-05-01 02:46:00,59.3,57.3,30.06,NE,52,7.0,7.0,93,0.00,,---,0.00,VWS V14.01,2013-05-01 06:46:00,
2013-05-01 02:51:00,59.2,57.2,30.06,NE,34,2.0,7.0,93,0.00,,---,0.00,VWS V14.01,2013-05-01 06:51:00,
2013-05-01 02:56:00,59.2,57.2,30.06,NNE,20,0.0,4.0,93,0.00,,---,0.00,VWS V14.01,2013-05-01 06:56:00,
2013-05-01 03:01:00,59.2,57.5,30.06,NNE,32,8.0,8.0,94,0.00,,---,0.00,VWS V14.01,2013-05-01 07:01:00,
2013-05-01 03:06:00,59.2,57.2,30.06,ENE,71,0.0,7.0,93,0.00,,---,0.00,VWS V14.01,2013-05-01 07:06:00,
2013-05-01 03:11:00,59.2,57.2,30.06,ENE,78,0.0,8.0,93,0.00,,---,0.00,VWS V14.01,2013-05-01 07:11:00,
2013-05-01 03:16:00,59.2,57.2,30.06,NNE,28,0.0,3.0,93,0.00,,---,0.00,VWS V14.01,2013-05-01 07:16:00,
2013-05-01 03:21:00,59.2,57.2,30.07,North,1,5.0,7.0,93,0.00,,---,0.00,VWS V14.01,2013-05-01 07:21:00,
2013-05-01 03:26:00,59.2,57.2,30.07,ENE,68,2.0,6.0,93,0.00,,---,0.00,VWS V14.01,2013-05-01 07:26:00,
2013-05-01 03:31:00,59.2,57.2,30.07,East,82,2.0,7.0,93,0.00,,---,0.00,VWS V14.01,2013-05-01 07:31:00,
2013-05-01 03:36:00,59.2,57.2,30.06,NNE,18,2.0,7.0,93,0.00,,---,0.00,VWS V14.01,2013-05-01 07:36:00,
2013-05-01 03:41:00,59.2,56.9,30.06,NE,54,8.0,11.0,92,0.00,,---,0.00,VWS V14.01,2013-05-01 07:41:00,
2013-05-01 03:46:00,59.2,56.6,30.06,NE,41,2.0,7.0,91,0.00,,---,0.00,VWS V14.01,2013-05-01 07:46:00,
2013-05-01 03:51:00,59.2,56.6,30.07,NNE,30,6.0,11.0,91,0.00,,---,0.00,VWS V14.01,2013-05-01 07:51:00,
2013-05-01 03:56:00,59.3,56.7,30.07,NE,34,1.0,5.0,91,0.00,,---,0.00,VWS V14.01,2013-05-01 07:56:00,
2013-05-01 04:01:00,59.3,56.7,30.07,NE,41,2.0,7.0,91,0.00,,---,0.00,VWS V14.01,2013-05-01 08:01:00,
2013-05-01 04:06:00,59.3,56.7,30.06,NE,47,0.0,3.0,91,0.00,,---,0.00,VWS V14.01,2013-05-01 08:06:00,
2013-05-01 04:11:00,59.3,56.7,30.06,ENE,72,10.0,10.0,91,0.00,,---,0.00,VWS V14.01,2013-05-01 08:11:00,
2013-05-01 04:16:00,59.3,56.7,30.06,NE,41,2.0,10.0,91,0.00,,---,0.00,VWS V14.01,2013-05-01 08:16:00,
2013-05-01 04:21:00,59.5,56.9,30.07,East,79,1.0,10.0,91,0.00,,---,0.00,VWS V14.01,2013-05-01 08:21:00,
2013-05-01 04:26:00,59.5,56.9,30.07,NNE,32,2.0,6.0,91,0.00,,---,0.00,VWS V14.01,2013-05-01 08:26:00,
2013-05-01 04:31:00,59.5,56.9,30.07,NE,44,0.0,7.0,91,0.00,,---,0.00,VWS V14.01,2013-05-01 08:31:00,
2013-05-01 04:36:00,59.5,56.6,30.07,NNE,23,6.0,7.0,90,0.00,,---,0.00,VWS V14.01,2013-05-01 08:36:00,
2013-05-01 04:41:00,59.5,56.6,30.07,ENE,68,1.0,7.0,90,0.00,,---,0.00,VWS V14.01,2013-05-01 08:41:00,
2013-05-01 04:46:00,59.6,56.7,30.07,North,0,3.0,5.0,90,0.00,,---,0.00,VWS V14.01,2013-05-01 08:46:00,
2013-05-01 04:51:00,59.6,56.7,30.07,NNE,20,0.0,5.0,90,0.00,,---,0.00,VWS V14.01,2013-05-01 08:51:00,
2013-05-01 04:56:00,59.6,56.7,30.07,NE,40,0.0,3.0,90,0.00,,---,0.00,VWS V14.01,2013-05-01 08:56:00,
2013-05-01 05:01:00,59.6,57.0,30.07,South,171,0.0,5.0,91,0.00,,---,0.00,VWS V14.01,2013-05-01 09:01:00,
2013-05-01 05:06:00,59.8,57.2,30.07,NE,37,0.0,3.0,91,0.00,,---,0.00,VWS V14.01,2013-05-01 09:06:00,
2013-05-01 05:11:00,59.8,56.9,30.07,NNE,30,2.0,5.0,90,0.00,,---,0.00,VWS V14.01,2013-05-01 09:11:00,
2013-05-01 05:16:00,59.8,57.2,30.07,NE,54,7.0,7.0,91,0.00,,---,0.00,VWS V14.01,2013-05-01 09:16:00,
2013-05-01 05:21:00,59.8,56.9,30.07,ENE,58,0.0,7.0,90,0.00,,---,0.00,VWS V14.01,2013-05-01 09:21:00,
2013-05-01 05:26:00,59.8,56.9,30.07,ENE,58,0.0,4.0,90,0.00,,---,0.00,VWS V14.01,2013-05-01 09:26:00,
2013-05-01 05:31:00,59.9,57.0,30.07,NNE,21,2.0,8.0,90,0.00,,---,0.00,VWS V14.01,2013-05-01 09:31:00,
2013-05-01 05:35:00,59.9,57.0,30.07,NNE,20,2.0,5.0,90,0.00,,---,0.00,VWS V14.01,2013-05-01 09:35:00,
2013-05-01 05:40:00,59.9,57.0,30.07,NNE,31,0.0,5.0,90,0.00,,---,0.00,VWS V14.01,2013-05-01 09:40:00,
2013-05-01 05:45:00,59.9,57.0,30.07,ENE,76,2.0,3.0,90,0.00,,---,0.00,VWS V14.01,2013-05-01 09:45:00,
2013-05-01 05:50:00,59.9,57.0,30.08,NNE,31,1.0,3.0,90,0.00,,---,0.00,VWS V14.01,2013-05-01 09:50:00,
2013-05-01 05:55:00,59.9,57.0,30.08,NNE,20,2.0,3.0,90,0.00,,---,0.00,VWS V14.01,2013-05-01 09:55:00,
2013-05-01 06:00:00,59.9,57.0,30.08,ENE,76,0.0,6.0,90,0.00,,---,0.00,VWS V14.01,2013-05-01 10:00:00,
2013-05-01 06:05:00,59.9,57.0,30.08,ENE,58,0.0,6.0,90,0.00,,---,0.00,VWS V14.01,2013-05-01 10:05:00,
2013-05-01 06:10:00,60.1,57.2,30.08,North,0,0.0,6.0,90,0.00,,---,0.00,VWS V14.01,2013-05-01 10:10:00,
2013-05-01 06:15:00,60.1,57.2,30.08,NE,41,0.0,5.0,90,0.00,,---,0.00,VWS V14.01,2013-05-01 10:15:00,
2013-05-01 06:20:00,60.1,57.2,30.09,NNE,32,2.0,5.0,90,0.00,,---,0.00,VWS V14.01,2013-05-01 10:20:00,
2013-05-01 06:25:00,60.1,57.2,30.09,NNE,30,0.0,3.0,90,0.00,,---,0.00,VWS V14.01,2013-05-01 10:25:00,
2013-05-01 06:30:00,60.1,57.2,30.09,NE,35,0.0,5.0,90,0.00,,---,0.00,VWS V14.01,2013-05-01 10:30:00,
2013-05-01 06:35:00,60.1,57.2,30.10,NNE,25,0.0,1.0,90,0.00,,---,0.00,VWS V14.01,2013-05-01 10:35:00,
2013-05-01 06:40:00,60.1,57.5,30.10,NNE,27,0.0,3.0,91,0.00,,---,0.00,VWS V14.01,2013-05-01 10:40:00,
2013-05-01 06:45:00,60.1,57.5,30.10,NNE,27,0.0,2.0,91,0.00,,---,0.00,VWS V14.01,2013-05-01 10:45:00,
2013-05-01 06:50:00,60.2,57.6,30.10,NNE,27,0.0,2.0,91,0.00,,---,0.00,VWS V14.01,2013-05-01 10:50:00,
2013-05-01 06:55:00,60.2,57.9,30.10,NNE,30,0.0,3.0,92,0.00,,---,0.00,VWS V14.01,2013-05-01 10:55:00,
2013-05-01 07:00:00,60.2,57.6,30.10,NE,42,0.0,3.0,91,0.00,,---,0.00,VWS V14.01,2013-05-01 11:00:00,
2013-05-01 07:05:00,60.2,57.6,30.10,NE,40,0.0,3.0,91,0.00,,---,0.00,VWS V14.01,2013-05-01 11:05:00,
2013-05-01 07:10:00,60.2,57.9,30.10,NE,38,0.0,3.0,92,0.00,,---,0.00,VWS V14.01,2013-05-01 11:10:00,
2013-05-01 07:15:00,60.2,57.9,30.10,North,7,1.0,2.0,92,0.00,,---,0.00,VWS V14.01,2013-05-01 11:15:00,
2013-05-01 07:20:00,60.2,57.9,30.11,North,7,0.0,2.0,92,0.00,,---,0.00,VWS V14.01,2013-05-01 11:20:00,
2013-05-01 07:25:00,60.2,57.9,30.11,North,7,0.0,0.0,92,0.00,,---,0.00,VWS V14.01,2013-05-01 11:25:00,
2013-05-01 07:30:00,60.2,57.9,30.11,North,7,0.0,0.0,92,0.00,,---,0.00,VWS V14.01,2013-05-01 11:30:00,
2013-05-01 07:35:00,60.2,57.9,30.10,North,7,0.0,1.0,92,0.00,,---,0.00,VWS V14.01,2013-05-01 11:35:00,
2013-05-01 07:40:00,60.2,57.9,30.10,North,7,0.0,1.0,92,0.00,,---,0.00,VWS V14.01,2013-05-01 11:40:00,
2013-05-01 07:45:00,60.2,57.9,30.10,North,10,0.0,2.0,92,0.00,,---,0.00,VWS V14.01,2013-05-01 11:45:00,
2013-05-01 07:50:00,60.2,57.9,30.10,NNE,32,3.0,3.0,92,0.00,,---,0.00,VWS V14.01,2013-05-01 11:50:00,
2013-05-01 07:55:00,60.2,57.9,30.10,NE,56,1.0,6.0,92,0.00,,---,0.00,VWS V14.01,2013-05-01 11:55:00,
2013-05-01 08:00:00,60.2,57.9,30.10,NE,49,1.0,6.0,92,0.00,,---,0.00,VWS V14.01,2013-05-01 12:00:00,
2013-05-01 08:05:00,60.4,57.8,30.10,NNE,30,0.0,2.0,91,0.00,,---,0.00,VWS V14.01,2013-05-01 12:05:00,
2013-05-01 08:10:00,60.4,57.8,30.10,NE,45,0.0,6.0,91,0.00,,---,0.00,VWS V14.01,2013-05-01 12:10:00,
2013-05-01 08:15:00,60.4,57.8,30.10,NE,44,2.0,3.0,91,0.00,,---,0.00,VWS V14.01,2013-05-01 12:15:00,
2013-05-01 08:20:00,60.4,57.8,30.10,ENE,64,0.0,6.0,91,0.00,,---,0.00,VWS V14.01,2013-05-01 12:20:00,
2013-05-01 08:25:00,60.5,57.9,30.10,NNE,28,0.0,6.0,91,0.00,,---,0.00,VWS V14.01,2013-05-01 12:25:00,
2013-05-01 08:30:00,60.5,58.2,30.10,NE,34,0.0,6.0,92,0.00,,---,0.00,VWS V14.01,2013-05-01 12:30:00,
2013-05-01 08:35:00,60.5,58.2,30.10,ENE,73,0.0,3.0,92,0.00,,---,0.00,VWS V14.01,2013-05-01 12:35:00,
2013-05-01 08:40:00,60.7,58.4,30.10,NNE,21,0.0,7.0,92,0.00,,---,0.00,VWS V14.01,2013-05-01 12:40:00,
2013-05-01 08:45:00,60.7,58.4,30.10,NNE,18,0.0,3.0,92,0.00,,---,0.00,VWS V14.01,2013-05-01 12:45:00,
2013-05-01 08:50:00,60.9,58.3,30.10,NE,37,3.0,7.0,91,0.00,,---,0.00,VWS V14.01,2013-05-01 12:50:00,
2013-05-01 08:55:00,60.9,58.6,30.10,North,7,2.0,3.0,92,0.00,,---,0.00,VWS V14.01,2013-05-01 12:55:00,
2013-05-01 09:00:00,61.0,58.7,30.10,ENE,66,5.0,6.0,92,0.00,,---,0.00,VWS V14.01,2013-05-01 13:00:00,
2013-05-01 09:05:00,61.2,58.6,30.11,NNE,16,1.0,7.0,91,0.00,,---,0.00,VWS V14.01,2013-05-01 13:05:00,
2013-05-01 09:10:00,61.2,58.2,30.11,NNE,25,0.0,8.0,90,0.00,,---,0.00,VWS V14.01,2013-05-01 13:10:00,
2013-05-01 09:15:00,61.5,58.8,30.11,ENE,75,2.0,8.0,91,0.00,,---,0.00,VWS V14.01,2013-05-01 13:15:00,
2013-05-01 09:20:00,61.6,58.6,30.11,ENE,71,6.0,8.0,90,0.00,,---,0.00,VWS V14.01,2013-05-01 13:20:00,
2013-05-01 09:25:00,61.8,58.8,30.11,NNE,21,2.0,6.0,90,0.00,,---,0.00,VWS V14.01,2013-05-01 13:25:00,
2013-05-01 09:30:00,62.0,59.0,30.11,NNE,20,0.0,6.0,90,0.00,,---,0.00,VWS V14.01,2013-05-01 13:30:00,
2013-05-01 09:35:00,62.1,58.8,30.12,NE,51,6.0,6.0,89,0.00,,---,0.00,VWS V14.01,2013-05-01 13:35:00,
2013-05-01 09:40:00,62.1,58.8,30.12,ENE,59,6.0,11.0,89,0.00,,---,0.00,VWS V14.01,2013-05-01 13:40:00,
2013-05-01 09:45:00,62.3,58.7,30.12,NNE,32,0.0,6.0,88,0.00,,---,0.00,VWS V14.01,2013-05-01 13:45:00,
2013-05-01 09:50:00,62.3,58.7,30.12,NNE,14,2.0,8.0,88,0.00,,---,0.00,VWS V14.01,2013-05-01 13:50:00,
2013-05-01 09:55:00,62.4,59.1,30.12,East,83,3.0,7.0,89,0.00,,---,0.00,VWS V14.01,2013-05-01 13:55:00,
2013-05-01 10:00:00,62.4,59.1,30.12,NNE,27,2.0,7.0,89,0.00,,---,0.00,VWS V14.01,2013-05-01 14:00:00,
2013-05-01 10:05:00,62.4,58.8,30.13,ENE,66,3.0,7.0,88,0.00,,---,0.00,VWS V14.01,2013-05-01 14:05:00,
2013-05-01 10:10:00,62.6,59.3,30.13,NW,306,0.0,7.0,89,0.00,,---,0.00,VWS V14.01,2013-05-01 14:10:00,
2013-05-01 10:15:00,62.7,59.1,30.13,NNE,24,2.0,3.0,88,0.00,,---,0.00,VWS V14.01,2013-05-01 14:15:00,
2013-05-01 10:20:00,62.9,59.3,30.14,NE,51,2.0,10.0,88,0.00,,---,0.00,VWS V14.01,2013-05-01 14:20:00,
2013-05-01 10:25:00,62.9,59.0,30.14,NE,54,5.0,10.0,87,0.00,,---,0.00,VWS V14.01,2013-05-01 14:25:00,
2013-05-01 10:30:00,62.9,59.0,30.14,NE,42,4.0,10.0,87,0.00,,---,0.00,VWS V14.01,2013-05-01 14:30:00,
2013-05-01 10:35:00,63.1,59.2,30.14,North,1,2.0,6.0,87,0.00,,---,0.00,VWS V14.01,2013-05-01 14:35:00,
2013-05-01 10:40:00,63.2,59.3,30.14,East,86,3.0,7.0,87,0.00,,---,0.00,VWS V14.01,2013-05-01 14:40:00,
2013-05-01 10:45:00,63.4,59.5,30.14,NE,49,3.0,6.0,87,0.00,,---,0.00,VWS V14.01,2013-05-01 14:45:00,
2013-05-01 10:50:00,63.5,59.6,30.15,NNE,27,3.0,12.0,87,0.00,,---,0.00,VWS V14.01,2013-05-01 14:50:00,
2013-05-01 10:55:00,63.7,59.4,30.15,NE,37,6.0,8.0,86,0.00,,---,0.00,VWS V14.01,2013-05-01 14:55:00,
2013-05-01 11:00:00,63.9,59.3,30.15,North,359,0.0,8.0,85,0.00,,---,0.00,VWS V14.01,2013-05-01 15:00:00,
2013-05-01 11:05:00,64.2,59.9,30.15,SE,131,6.0,11.0,86,0.00,,---,0.00,VWS V14.01,2013-05-01 15:05:00,
2013-05-01 11:10:00,64.5,59.2,30.15,NE,49,2.0,11.0,83,0.00,,---,0.00,VWS V14.01,2013-05-01 15:10:00,
2013-05-01 11:15:00,64.7,59.1,30.15,NNE,23,4.0,11.0,82,0.00,,---,0.00,VWS V14.01,2013-05-01 15:15:00,
2013-05-01 11:20:00,64.8,59.5,30.15,NW,325,0.0,11.0,83,0.00,,---,0.00,VWS V14.01,2013-05-01 15:20:00,
2013-05-01 11:25:00,64.8,59.5,30.15,NNE,24,5.0,5.0,83,0.00,,---,0.00,VWS V14.01,2013-05-01 15:25:00,
2013-05-01 11:30:00,64.7,59.8,30.15,NE,42,0.0,8.0,84,0.00,,---,0.00,VWS V14.01,2013-05-01 15:30:00,
2013-05-01 11:35:00,64.7,59.4,30.16,NE,37,8.0,8.0,83,0.00,,---,0.00,VWS V14.01,2013-05-01 15:35:00,
2013-05-01 11:40:00,64.7,59.4,30.16,NE,49,8.0,8.0,83,0.00,,---,0.00,VWS V14.01,2013-05-01 15:40:00,
2013-05-01 11:45:00,64.7,59.4,30.16,East,96,5.0,9.0,83,0.00,,---,0.00,VWS V14.01,2013-05-01 15:45:00,
2013-05-01 11:50:00,65.0,59.7,30.16,ENE,61,5.0,9.0,83,0.00,,---,0.00,VWS V14.01,2013-05-01 15:50:00,
2013-05-01 11:55:00,65.3,59.7,30.16,ENE,65,6.0,10.0,82,0.00,,---,0.00,VWS V14.01,2013-05-01 15:55:00,
2013-05-01 12:00:00,65.6,59.6,30.16,North,10,5.0,10.0,81,0.00,,---,0.00,VWS V14.01,2013-05-01 16:00:00,
2013-05-01 12:05:00,66.0,59.0,30.15,North,0,7.0,10.0,78,0.00,,---,0.00,VWS V14.01,2013-05-01 16:05:00,
2013-05-01 12:10:00,66.1,59.0,30.15,ENE,71,4.0,11.0,78,0.00,,---,0.00,VWS V14.01,2013-05-01 16:10:00,
2013-05-01 12:15:00,66.1,58.7,30.15,North,8,0.0,10.0,77,0.00,,---,0.00,VWS V14.01,2013-05-01 16:15:00,
2013-05-01 12:20:00,66.3,58.9,30.14,ENE,58,6.0,11.0,77,0.00,,---,0.00,VWS V14.01,2013-05-01 16:20:00,
2013-05-01 12:25:00,66.3,59.6,30.14,NNE,16,0.0,6.0,79,0.00,,---,0.00,VWS V14.01,2013-05-01 16:25:00,
2013-05-01 12:30:00,66.8,59.7,30.14,North,8,3.0,12.0,78,0.00,,---,0.00,VWS V14.01,2013-05-01 16:30:00,
2013-05-01 12:35:00,66.9,60.2,30.14,NNE,20,7.0,11.0,79,0.00,,---,0.00,VWS V14.01,2013-05-01 16:35:00,
2013-05-01 12:40:00,66.8,58.6,30.14,North,4,2.0,12.0,75,0.00,,---,0.00,VWS V14.01,2013-05-01 16:40:00,
2013-05-01 12:45:00,66.9,59.5,30.14,ENE,73,8.0,10.0,77,0.00,,---,0.00,VWS V14.01,2013-05-01 16:45:00,
2013-05-01 12:50:00,66.9,59.5,30.14,North,8,6.0,10.0,77,0.00,,---,0.00,VWS V14.01,2013-05-01 16:50:00,
2013-05-01 12:55:00,66.9,58.7,30.14,NE,35,2.0,18.0,75,0.00,,---,0.00,VWS V14.01,2013-05-01 16:55:00,
2013-05-01 13:00:00,66.8,58.6,30.14,NE,38,6.0,18.0,75,0.00,,---,0.00,VWS V14.01,2013-05-01 17:00:00,
2013-05-01 13:05:00,66.6,58.8,30.13,NE,56,5.0,12.0,76,0.00,,---,0.00,VWS V14.01,2013-05-01 17:05:00,
2013-05-01 13:10:00,66.6,58.8,30.13,North,357,2.0,12.0,76,0.00,,---,0.00,VWS V14.01,2013-05-01 17:10:00,
2013-05-01 13:15:00,66.6,58.8,30.13,NE,49,3.0,10.0,76,0.00,,---,0.00,VWS V14.01,2013-05-01 17:15:00,
2013-05-01 13:20:00,66.8,59.4,30.13,NE,40,1.0,10.0,77,0.00,,---,0.00,VWS V14.01,2013-05-01 17:20:00,
2013-05-01 13:25:00,66.8,60.1,30.13,NE,47,2.0,7.0,79,0.00,,---,0.00,VWS V14.01,2013-05-01 17:25:00,
2013-05-01 13:30:00,66.9,59.1,30.13,NE,45,1.0,13.0,76,0.00,,---,0.00,VWS V14.01,2013-05-01 17:30:00,
2013-05-01 13:35:00,66.9,59.1,30.13,NE,48,4.0,13.0,76,0.00,,---,0.00,VWS V14.01,2013-05-01 17:35:00,
2013-05-01 13:40:00,67.1,58.9,30.13,NNE,32,0.0,13.0,75,0.00,,---,0.00,VWS V14.01,2013-05-01 17:40:00,
2013-05-01 13:45:00,67.3,59.5,30.13,East,89,4.0,7.0,76,0.00,,---,0.00,VWS V14.01,2013-05-01 17:45:00,
2013-05-01 13:50:00,67.4,59.2,30.13,NNE,28,2.0,12.0,75,0.00,,---,0.00,VWS V14.01,2013-05-01 17:50:00,
2013-05-01 13:55:00,67.4,59.2,30.13,North,8,1.0,7.0,75,0.00,,---,0.00,VWS V14.01,2013-05-01 17:55:00,
2013-05-01 14:00:00,67.3,59.1,30.13,NNE,27,6.0,11.0,75,0.00,,---,0.00,VWS V14.01,2013-05-01 18:00:00,
2013-05-01 14:05:00,67.3,59.1,30.14,NNE,17,3.0,11.0,75,0.00,,---,0.00,VWS V14.01,2013-05-01 18:05:00,
2013-05-01 14:10:00,67.1,58.9,30.14,NE,38,6.0,13.0,75,0.00,,---,0.00,VWS V14.01,2013-05-01 18:10:00,
2013-05-01 14:15:00,66.9,59.1,30.14,ENE,62,0.0,11.0,76,0.00,,---,0.00,VWS V14.01,2013-05-01 18:15:00,
2013-05-01 14:20:00,66.9,59.1,30.14,NE,37,2.0,11.0,76,0.00,,---,0.00,VWS V14.01,2013-05-01 18:20:00,
2013-05-01 14:25:00,66.8,59.4,30.14,East,96,1.0,8.0,77,0.00,,---,0.00,VWS V14.01,2013-05-01 18:25:00,
2013-05-01 14:30:00,66.6,59.5,30.14,NE,51,2.0,8.0,78,0.00,,---,0.00,VWS V14.01,2013-05-01 18:30:00,
2013-05-01 14:35:00,66.6,59.9,30.14,NE,44,2.0,13.0,79,0.00,,---,0.00,VWS V14.01,2013-05-01 18:35:00,
2013-05-01 14:40:00,66.6,60.2,30.14,NNE,13,6.0,13.0,80,0.00,,---,0.00,VWS V14.01,2013-05-01 18:40:00,
2013-05-01 14:45:00,66.6,59.9,30.14,ENE,59,3.0,11.0,79,0.00,,---,0.00,VWS V14.01,2013-05-01 18:45:00,
2013-05-01 14:50:00,66.8,59.7,30.14,NNE,18,3.0,11.0,78,0.00,,---,0.00,VWS V14.01,2013-05-01 18:50:00,
2013-05-01 14:55:00,66.9,59.8,30.14,East,89,5.0,13.0,78,0.00,,---,0.00,VWS V14.01,2013-05-01 18:55:00,
2013-05-01 15:00:00,67.1,60.4,30.14,NNE,17,5.0,13.0,79,0.00,,---,0.00,VWS V14.01,2013-05-01 19:00:00,
2013-05-01 15:05:00,67.3,59.5,30.14,North,0,0.0,14.0,76,0.00,,---,0.00,VWS V14.01,2013-05-01 19:05:00,
2013-05-01 15:10:00,67.3,59.8,30.14,NE,54,8.0,14.0,77,0.00,,---,0.00,VWS V14.01,2013-05-01 19:10:00,
2013-05-01 15:15:00,67.3,59.5,30.14,ESE,107,5.0,13.0,76,0.00,,---,0.00,VWS V14.01,2013-05-01 19:15:00,
2013-05-01 15:20:00,67.1,59.7,30.14,NE,49,3.0,13.0,77,0.00,,---,0.00,VWS V14.01,2013-05-01 19:20:00,
2013-05-01 15:25:00,67.3,60.2,30.14,East,100,7.0,8.0,78,0.00,,---,0.00,VWS V14.01,2013-05-01 19:25:00,
2013-05-01 15:30:00,67.4,60.0,30.14,North,0,0.0,8.0,77,0.00,,---,0.00,VWS V14.01,2013-05-01 19:30:00,
2013-05-01 15:35:00,67.6,60.1,30.13,NE,49,10.0,10.0,77,0.00,,---,0.00,VWS V14.01,2013-05-01 19:35:00,
2013-05-01 15:40:00,67.8,60.3,30.13,North,359,5.0,11.0,77,0.00,,---,0.00,VWS V14.01,2013-05-01 19:40:00,
2013-05-01 15:45:00,67.8,60.0,30.13,NE,42,2.0,7.0,76,0.00,,---,0.00,VWS V14.01,2013-05-01 19:45:00,
2013-05-01 15:50:00,67.9,60.1,30.13,NE,55,6.0,8.0,76,0.00,,---,0.00,VWS V14.01,2013-05-01 19:50:00,
2013-05-01 15:55:00,67.9,60.1,30.13,NE,54,0.0,3.0,76,0.00,,---,0.00,VWS V14.01,2013-05-01 19:55:00,
2013-05-01 16:00:00,67.9,59.7,30.13,East,83,6.0,13.0,75,0.00,,---,0.00,VWS V14.01,2013-05-01 20:00:00,
2013-05-01 16:05:00,67.9,59.7,30.13,NNE,20,0.0,6.0,75,0.00,,---,0.00,VWS V14.01,2013-05-01 20:05:00,
2013-05-01 16:10:00,68.1,60.3,30.13,ENE,61,0.0,8.0,76,0.00,,---,0.00,VWS V14.01,2013-05-01 20:10:00,
2013-05-01 16:15:00,68.3,60.1,30.13,NNE,28,1.0,8.0,75,0.00,,---,0.00,VWS V14.01,2013-05-01 20:15:00,
2013-05-01 16:20:00,68.3,60.5,30.13,NNE,16,1.0,8.0,76,0.00,,---,0.00,VWS V14.01,2013-05-01 20:20:00,
2013-05-01 16:25:00,68.4,60.2,30.13,ESE,116,0.0,10.0,75,0.00,,---,0.00,VWS V14.01,2013-05-01 20:25:00,
2013-05-01 16:30:00,68.4,60.2,30.13,NE,45,0.0,11.0,75,0.00,,---,0.00,VWS V14.01,2013-05-01 20:30:00,
2013-05-01 16:35:00,68.3,60.5,30.13,NE,56,3.0,11.0,76,0.00,,---,0.00,VWS V14.01,2013-05-01 20:35:00,
2013-05-01 16:40:00,68.3,60.1,30.13,ENE,72,5.0,11.0,75,0.00,,---,0.00,VWS V14.01,2013-05-01 20:40:00,
2013-05-01 16:45:00,67.9,59.7,30.13,NNE,21,5.0,10.0,75,0.00,,---,0.00,VWS V14.01,2013-05-01 20:45:00,
2013-05-01 16:50:00,67.9,60.1,30.13,North,0,0.0,10.0,76,0.00,,---,0.00,VWS V14.01,2013-05-01 20:50:00,
2013-05-01 16:55:00,67.9,60.1,30.13,North,0,1.0,4.0,76,0.00,,---,0.00,VWS V14.01,2013-05-01 20:55:00,
2013-05-01 17:00:00,67.8,60.0,30.13,North,10,0.0,12.0,76,0.00,,---,0.00,VWS V14.01,2013-05-01 21:00:00,
2013-05-01 17:05:00,67.6,59.8,30.13,East,83,7.0,10.0,76,0.00,,---,0.00,VWS V14.01,2013-05-01 21:05:00,
2013-05-01 17:10:00,67.6,59.8,30.13,North,356,6.0,10.0,76,0.00,,---,0.00,VWS V14.01,2013-05-01 21:10:00,
2013-05-01 17:15:00,67.4,59.6,30.13,East,90,4.0,7.0,76,0.00,,---,0.00,VWS V14.01,2013-05-01 21:15:00,
2013-05-01 17:20:00,67.3,59.5,30.13,NE,55,4.0,11.0,76,0.00,,---,0.00,VWS V14.01,2013-05-01 21:20:00,
2013-05-01 17:25:00,67.1,59.3,30.13,NE,56,11.0,11.0,76,0.00,,---,0.00,VWS V14.01,2013-05-01 21:25:00,
2013-05-01 17:30:00,67.1,60.0,30.13,ENE,62,0.0,11.0,78,0.00,,---,0.00,VWS V14.01,2013-05-01 21:30:00,
2013-05-01 17:35:00,67.1,60.0,30.13,NNE,32,1.0,5.0,78,0.00,,---,0.00,VWS V14.01,2013-05-01 21:35:00,
2013-05-01 17:40:00,67.1,60.4,30.13,NNE,30,2.0,7.0,79,0.00,,---,0.00,VWS V14.01,2013-05-01 21:40:00,
2013-05-01 17:45:00,67.3,59.8,30.13,East,82,2.0,12.0,77,0.00,,---,0.00,VWS V14.01,2013-05-01 21:45:00,
2013-05-01 17:50:00,67.4,60.3,30.13,ENE,72,0.0,12.0,78,0.00,,---,0.00,VWS V14.01,2013-05-01 21:50:00,
2013-05-01 17:55:00,67.8,60.3,30.13,NNE,17,2.0,5.0,77,0.00,,---,0.00,VWS V14.01,2013-05-01 21:55:00,
2013-05-01 18:00:00,67.9,60.1,30.13,NE,56,4.0,10.0,76,0.00,,---,0.00,VWS V14.01,2013-05-01 22:00:00,
2013-05-01 18:05:00,67.9,60.1,30.13,NE,49,6.0,11.0,76,0.00,,---,0.00,VWS V14.01,2013-05-01 22:05:00,
2013-05-01 18:10:00,67.8,60.0,30.13,NNE,21,3.0,11.0,76,0.00,,---,0.00,VWS V14.01,2013-05-01 22:10:00,
2013-05-01 18:15:00,67.6,60.1,30.13,East,82,2.0,10.0,77,0.00,,---,0.00,VWS V14.01,2013-05-01 22:15:00,
2013-05-01 18:20:00,67.4,60.0,30.14,ENE,66,3.0,10.0,77,0.00,,---,0.00,VWS V14.01,2013-05-01 22:20:00,
2013-05-01 18:25:00,67.3,60.2,30.14,NNE,13,0.0,4.0,78,0.00,,---,0.00,VWS V14.01,2013-05-01 22:25:00,
2013-05-01 18:30:00,67.1,60.0,30.14,NNE,25,2.0,7.0,78,0.00,,---,0.00,VWS V14.01,2013-05-01 22:30:00,
2013-05-01 18:34:00,66.8,59.7,30.13,NNE,30,0.0,3.0,78,0.00,,---,0.00,VWS V14.01,2013-05-01 22:34:00,
2013-05-01 18:39:00,66.6,59.9,30.13,NNE,31,0.0,8.0,79,0.00,,---,0.00,VWS V14.01,2013-05-01 22:39:00,
2013-05-01 18:44:00,66.4,60.0,30.13,ENE,73,2.0,5.0,80,0.00,,---,0.00,VWS V14.01,2013-05-01 22:44:00,
2013-05-01 18:49:00,66.4,60.0,30.13,NE,55,1.0,7.0,80,0.00,,---,0.00,VWS V14.01,2013-05-01 22:49:00,
2013-05-01 18:54:00,66.3,60.3,30.13,NE,51,7.0,7.0,81,0.00,,---,0.00,VWS V14.01,2013-05-01 22:54:00,
2013-05-01 18:59:00,66.3,60.0,30.13,NE,42,0.0,7.0,80,0.00,,---,0.00,VWS V14.01,2013-05-01 22:59:00,
2013-05-01 19:04:00,66.1,60.1,30.13,East,80,0.0,7.0,81,0.00,,---,0.00,VWS V14.01,2013-05-01 23:04:00,
2013-05-01 19:09:00,66.0,60.0,30.13,NNE,27,0.0,7.0,81,0.00,,---,0.00,VWS V14.01,2013-05-01 23:09:00,
2013-05-01 19:14:00,66.0,60.0,30.13,NNE,32,3.0,3.0,81,0.00,,---,0.00,VWS V14.01,2013-05-01 23:14:00,
2013-05-01 19:19:00,65.8,59.8,30.14,NNE,25,2.0,5.0,81,0.00,,---,0.00,VWS V14.01,2013-05-01 23:19:00,
2013-05-01 19:24:00,65.8,60.2,30.14,NNE,16,3.0,10.0,82,0.00,,---,0.00,VWS V14.01,2013-05-01 23:24:00,
2013-05-01 19:29:00,65.6,60.0,30.14,NE,34,0.0,10.0,82,0.00,,---,0.00,VWS V14.01,2013-05-01 23:29:00,
2013-05-01 19:34:00,65.6,60.0,30.14,NE,38,0.0,0.0,82,0.00,,---,0.00,VWS V14.01,2013-05-01 23:34:00,
2013-05-01 19:39:00,65.5,59.9,30.14,NNE,24,3.0,6.0,82,0.00,,---,0.00,VWS V14.01,2013-05-01 23:39:00,
2013-05-01 19:44:00,65.5,59.9,30.14,NNE,27,13.0,13.0,82,0.00,,---,0.00,VWS V14.01,2013-05-01 23:44:00,
2013-05-01 19:49:00,65.3,59.7,30.14,NE,48,6.0,13.0,82,0.00,,---,0.00,VWS V14.01,2013-05-01 23:49:00,
2013-05-01 19:54:00,65.2,59.9,30.14,East,79,2.0,8.0,83,0.00,,---,0.00,VWS V14.01,2013-05-01 23:54:00,
2013-05-01 19:59:00,65.0,60.0,30.14,NE,56,7.0,8.0,84,0.00,,---,0.00,VWS V14.01,2013-05-01 23:59:00,
2013-05-01 20:04:00,65.0,60.0,30.14,North,0,6.0,6.0,84,0.00,,---,0.00,VWS V14.01,2013-05-02 00:04:00,
2013-05-01 20:09:00,64.8,60.2,30.14,North,0,3.0,8.0,85,0.00,,---,0.00,VWS V14.01,2013-05-02 00:09:00,
2013-05-01 20:14:00,64.7,60.1,30.14,ENE,62,0.0,9.0,85,0.00,,---,0.00,VWS V14.01,2013-05-02 00:14:00,
2013-05-01 20:19:00,64.5,60.2,30.15,ENE,59,8.0,11.0,86,0.00,,---,0.00,VWS V14.01,2013-05-02 00:19:00,
2013-05-01 20:24:00,64.5,60.2,30.15,NE,55,3.0,7.0,86,0.00,,---,0.00,VWS V14.01,2013-05-02 00:24:00,
2013-05-01 20:29:00,64.3,60.3,30.15,NE,55,3.0,7.0,87,0.00,,---,0.00,VWS V14.01,2013-05-02 00:29:00,
2013-05-01 20:34:00,64.2,60.9,30.15,NE,48,0.0,5.0,89,0.00,,---,0.00,VWS V14.01,2013-05-02 00:34:00,
2013-05-01 20:39:00,64.2,60.9,30.15,NNE,13,0.0,6.0,89,0.00,,---,0.00,VWS V14.01,2013-05-02 00:39:00,
2013-05-01 20:44:00,63.9,60.9,30.15,NNE,30,0.0,5.0,90,0.00,,---,0.00,VWS V14.01,2013-05-02 00:44:00,
2013-05-01 20:49:00,63.7,61.0,30.16,NNE,20,2.0,7.0,91,0.00,,---,0.00,VWS V14.01,2013-05-02 00:49:00,
2013-05-01 20:54:00,63.5,60.8,30.16,North,1,2.0,5.0,91,0.00,,---,0.00,VWS V14.01,2013-05-02 00:54:00,
2013-05-01 20:59:00,63.4,61.0,30.16,ENE,72,1.0,5.0,92,0.00,,---,0.00,VWS V14.01,2013-05-02 00:59:00,
2013-05-01 21:04:00,63.2,61.2,30.16,NE,35,1.0,4.0,93,0.00,,---,0.00,VWS V14.01,2013-05-02 01:04:00,
2013-05-01 21:09:00,63.1,61.0,30.16,NE,34,4.0,4.0,93,0.00,,---,0.00,VWS V14.01,2013-05-02 01:09:00,
2013-05-01 21:14:00,62.9,61.2,30.16,NNE,27,0.0,2.0,94,0.00,,---,0.00,VWS V14.01,2013-05-02 01:14:00,
2013-05-01 21:19:00,62.9,61.2,30.17,NNE,28,0.0,6.0,94,0.00,,---,0.00,VWS V14.01,2013-05-02 01:19:00,
2013-05-01 21:24:00,62.7,61.2,30.17,NNE,25,0.0,5.0,95,0.00,,---,0.00,VWS V14.01,2013-05-02 01:24:00,
2013-05-01 21:29:00,62.6,61.2,30.17,ENE,64,2.0,5.0,95,0.00,,---,0.00,VWS V14.01,2013-05-02 01:29:00,
2013-05-01 21:34:00,62.6,61.2,30.17,North,0,3.0,3.0,95,0.01,,---,0.01,VWS V14.01,2013-05-02 01:34:00,
2013-05-01 21:39:00,62.4,61.0,30.17,NNE,25,1.0,7.0,95,0.01,,---,0.01,VWS V14.01,2013-05-02 01:39:00,
2013-05-01 21:44:00,62.4,61.2,30.17,NE,38,0.0,0.0,96,0.01,,---,0.01,VWS V14.01,2013-05-02 01:44:00,
2013-05-01 21:49:00,62.4,61.2,30.18,NE,56,0.0,2.0,96,0.01,,---,0.01,VWS V14.01,2013-05-02 01:49:00,
2013-05-01 21:54:00,62.3,61.2,30.18,NE,56,0.0,2.0,96,0.01,,---,0.01,VWS V14.01,2013-05-02 01:54:00,
2013-05-01 21:59:00,62.3,61.4,30.18,NE,47,1.0,6.0,97,0.01,,---,0.01,VWS V14.01,2013-05-02 01:59:00,
2013-05-01 22:04:00,62.3,61.4,30.18,NNE,16,6.0,6.0,97,0.01,,---,0.01,VWS V14.01,2013-05-02 02:04:00,
2013-05-01 22:09:00,62.3,61.4,30.18,NE,37,5.0,6.0,97,0.01,,---,0.01,VWS V14.01,2013-05-02 02:09:00,
2013-05-01 22:14:00,62.1,61.2,30.18,NNE,27,2.0,3.0,97,0.01,,---,0.01,VWS V14.01,2013-05-02 02:14:00,
2013-05-01 22:19:00,62.1,61.2,30.18,NE,41,0.0,7.0,97,0.01,,---,0.01,VWS V14.01,2013-05-02 02:19:00,
2013-05-01 22:24:00,62.1,61.5,30.18,NE,41,3.0,3.0,98,0.01,,---,0.01,VWS V14.01,2013-05-02 02:24:00,
2013-05-01 22:29:00,62.1,61.5,30.18,NE,34,2.0,3.0,98,0.01,,---,0.01,VWS V14.01,2013-05-02 02:29:00,
2013-05-01 22:34:00,62.1,61.5,30.18,NNE,28,2.0,4.0,98,0.00,,---,0.01,VWS V14.01,2013-05-02 02:34:00,
2013-05-01 22:39:00,62.1,61.5,30.18,North,3,2.0,6.0,98,0.00,,---,0.01,VWS V14.01,2013-05-02 02:39:00,
2013-05-01 22:44:00,62.1,61.5,30.18,ENE,72,0.0,4.0,98,0.00,,---,0.01,VWS V14.01,2013-05-02 02:44:00,
2013-05-01 22:49:00,62.1,61.5,30.18,NNE,28,2.0,6.0,98,0.00,,---,0.01,VWS V14.01,2013-05-02 02:49:00,
2013-05-01 22:54:00,62.1,61.5,30.18,North,3,0.0,3.0,98,0.00,,---,0.01,VWS V14.01,2013-05-02 02:54:00,
2013-05-01 22:59:00,62.1,61.5,30.18,NE,55,5.0,8.0,98,0.00,,---,0.01,VWS V14.01,2013-05-02 02:59:00,
2013-05-01 23:04:00,62.1,61.5,30.17,NE,52,2.0,6.0,98,0.00,,---,0.01,VWS V14.01,2013-05-02 03:04:00,
2013-05-01 23:09:00,62.1,61.5,30.17,NE,52,1.0,7.0,98,0.00,,---,0.01,VWS V14.01,2013-05-02 03:09:00,
2013-05-01 23:14:00,62.1,61.5,30.17,NE,54,0.0,3.0,98,0.00,,---,0.01,VWS V14.01,2013-05-02 03:14:00,
2013-05-01 23:19:00,62.1,61.5,30.17,ENE,61,3.0,10.0,98,0.00,,---,0.01,VWS V14.01,2013-05-02 03:19:00,
2013-05-01 23:24:00,62.1,61.5,30.17,ENE,71,5.0,6.0,98,0.00,,---,0.01,VWS V14.01,2013-05-02 03:24:00,
2013-05-01 23:29:00,62.1,61.5,30.17,ENE,76,5.0,6.0,98,0.00,,---,0.01,VWS V14.01,2013-05-02 03:29:00,
2013-05-01 23:34:00,62.1,61.5,30.17,NNE,25,1.0,8.0,98,0.00,,---,0.01,VWS V14.01,2013-05-02 03:34:00,
2013-05-01 23:39:00,62.1,61.5,30.17,ENE,65,7.0,8.0,98,0.00,,---,0.01,VWS V14.01,2013-05-02 03:39:00,
2013-05-01 23:44:00,62.1,61.5,30.17,ENE,76,1.0,6.0,98,0.00,,---,0.01,VWS V14.01,2013-05-02 03:44:00,
2013-05-01 23:49:00,62.1,61.5,30.17,NE,48,3.0,9.0,98,0.00,,---,0.01,VWS V14.01,2013-05-02 03:49:00,
2013-05-01 23:54:00,62.1,61.5,30.17,NE,42,2.0,6.0,98,0.00,,---,0.01,VWS V14.01,2013-05-02 03:54:00,
2013-05-01 23:59:00,62.0,61.4,30.17,ENE,71,0.0,8.0,98,0.01,,---,0.02,VWS V14.01,2013-05-02 03:59:00,